EW7342 Weather Reports


time (UTC)temp
C
wind
direction
speed
KPH
gust
KPH
rain 1hr
cm
rain 24hr
cm
rain mn
cm
humidity
%
barometer
mb
20260505032019 20 179 3.2 6.4 0.00 0.05 0.05 46 1015.6
20260505031019 20 169 1.6 8.0 0.00 0.05 0.05 45 1015.6
20260505030039 20 173 1.6 8.0 0.00 0.05 0.05 44 1015.5
20260505025019 20 189 3.2 9.7 0.00 0.05 0.05 44 1015.5
20260505024019 20 191 1.6 6.4 0.00 0.05 0.05 45 1015.4
20260505023020 20 157 1.6 9.7 0.00 0.05 0.05 44 1015.4
20260505022019 20 183 1.6 6.4 0.00 0.05 0.05 44 1015.3
20260505021020 20 166 0.0 6.4 0.00 0.05 0.05 45 1015.3
20260505020017 20 154 0.0 6.4 0.00 0.05 0.05 45 1015.2
20260505015017 20 0.0 0.0 0.00 0.05 0.05 45 1015.1
20260505014020 20 0.0 0.0 0.00 0.05 0.05 44 1015.0
20260505013040 21 178 0.0 3.2 0.00 0.05 0.05 43 1014.9
20260505012018 21 0.0 0.0 0.00 0.05 0.05 42 1014.8
20260505011018 21 0.0 0.0 0.00 0.05 0.05 41 1014.7
20260505010018 21 165 3.2 8.0 0.00 0.05 0.05 41 1014.6
20260505005058 21 163 1.6 6.4 0.00 0.05 0.05 41 1014.4
20260505004038 22 171 3.2 6.4 0.00 0.05 0.05 39 1014.3
20260505003019 22 166 4.8 11.3 0.00 0.05 0.05 38 1014.3
20260505002038 22 187 3.2 9.7 0.00 0.05 0.05 36 1014.3
20260505001019 23 174 1.6 6.4 0.00 0.05 0.05 36 1014.2
20260505000018 23 181 1.6 6.4 0.00 0.05 0.05 36 1014.0
20260504235019 23 194 3.2 6.4 0.00 0.05 0.05 35 1013.9
20260504234019 23 199 1.6 6.4 0.00 0.05 0.05 34 1013.8
20260504233020 23 195 1.6 6.4 0.00 0.05 0.05 34 1013.6
20260504232019 23 195 1.6 9.7 0.00 0.05 0.05 32 1013.6
20260504231020 24 201 1.6 4.8 0.00 0.05 0.05 31 1013.5
20260504230016 24 198 3.2 9.7 0.00 0.05 0.05 32 1013.5
20260504225020 24 202 3.2 8.0 0.00 0.05 0.05 33 1013.5
20260504224020 25 197 3.2 8.0 0.00 0.05 0.05 32 1013.6
20260504223037 25 209 1.6 8.0 0.00 0.05 0.05 30 1013.6
20260504222058 25 204 4.8 14.5 0.00 0.05 0.05 29 1013.6
20260504221038 25 214 3.2 11.3 0.00 0.05 0.05 28 1013.6
20260504220021 25 210 3.2 9.7 0.00 0.05 0.05 29 1013.7
20260504215018 25 194 4.8 12.9 0.00 0.05 0.05 28 1013.6
20260504214018 25 236 4.8 11.3 0.00 0.05 0.05 26 1013.6
20260504213039 25 208 3.2 8.0 0.00 0.05 0.05 28 1013.7
20260504212018 25 175 4.8 12.9 0.00 0.05 0.05 28 1013.7
20260504211039 25 207 4.8 11.3 0.00 0.05 0.05 29 1013.6
20260504210019 25 208 6.4 14.5 0.00 0.05 0.05 29 1013.7
20260504205019 26 189 3.2 9.7 0.00 0.05 0.05 29 1013.8
20260504204019 25 189 3.2 11.3 0.00 0.05 0.05 28 1013.9
20260504203019 26 220 3.2 9.7 0.00 0.05 0.05 29 1014.1
20260504202017 25 181 1.6 8.0 0.00 0.05 0.05 29 1014.3
20260504201017 25 211 6.4 12.9 0.00 0.05 0.05 29 1014.3
20260504200020 25 179 4.8 14.5 0.00 0.05 0.05 28 1014.5
20260504195020 25 214 1.6 8.0 0.00 0.05 0.05 26 1014.6
20260504194020 25 204 3.2 9.7 0.00 0.05 0.05 29 1014.7
20260504193017 25 205 3.2 12.9 0.00 0.05 0.05 30 1014.7
20260504192018 25 216 3.2 11.3 0.00 0.05 0.05 29 1014.9
20260504191018 25 204 3.2 8.0 0.00 0.05 0.05 30 1014.9
20260504190020 25 214 4.8 9.7 0.00 0.05 0.05 31 1015.0
20260504185018 25 181 0.0 8.0 0.00 0.05 0.05 30 1015.1
20260504184018 25 206 3.2 12.9 0.00 0.05 0.05 29 1015.1
20260504183018 24 200 1.6 8.0 0.00 0.05 0.05 29 1015.4
20260504182018 24 194 1.6 11.3 0.00 0.05 0.05 32 1015.5
20260504181019 23 198 1.6 8.0 0.00 0.05 0.05 32 1015.5
20260504180136 24 207 3.2 9.7 0.00 0.05 0.05 32 1015.6
20260504175016 25 177 3.2 9.7 0.00 0.05 0.05 31 1015.8
20260504174019 25 211 0.0 6.4 0.00 0.05 0.05 30 1015.9
20260504173039 24 166 0.0 4.8 0.00 0.05 0.05 31 1015.9
20260504172019 25 116 0.0 4.8 0.00 0.05 0.05 32 1016.0
20260504171019 24 197 0.0 4.8 0.00 0.05 0.05 33 1016.1
20260504151021 20 312 1.6 4.8 0.00 0.05 0.05 51 1017.6
20260504141022 15 157 1.6 4.8 0.00 0.05 0.05 64 1017.9
20260504081019 11 0.0 0.0 0.00 0.00 0.00 79 1016.9
20260504050019 13 169 1.6 4.8 0.00 0.00 0.00 67 1017.1
20260504045020 13 166 0.0 4.8 0.00 0.00 0.00 67 1017.2
20260504044020 13 0.0 0.0 0.00 0.00 0.00 66 1017.3
20260504043040 13 0.0 0.0 0.00 0.00 0.00 65 1017.4
20260504042017 13 160 0.0 4.8 0.00 0.00 0.00 65 1017.5
20260504041017 13 0.0 0.0 0.00 0.00 0.00 65 1017.5
20260504040020 14 0.0 0.0 0.00 0.00 0.00 65 1017.5
20260504035041 14 0.0 0.0 0.00 0.00 0.00 64 1017.6
20260504034038 14 0.0 0.0 0.00 0.00 0.00 64 1017.6
20260504033018 15 144 0.0 3.2 0.00 0.00 0.00 63 1017.6